When you browse on this site, cookies collect data to enhance your experience and personalize the content and advertising you see.
Visit our Privacy Policy to learn more. By continuing to use the site, you agree to this use of cookies and data.
  • In Romania
  • List of Countries
  • For 7 days
  • Water Temperature
  • Satellite Maps
  • Weather Map
  • Weather Widgets
  • user-avatar
    Login

    Hourly Weather Tskhaltubo

    Today, 26 March, Tuesday

    Time Temperature Precipitation Wind Pressure Humidity
    00:00 +5°C° 0 mm 1 mps 743 mmHg 75%
    01:00 +4°C° 0 mm 2 mps 743 mmHg 72%
    02:00 +4°C° 0 mm 2 mps 743 mmHg 70%
    03:00 +4°C° 0 mm 2 mps 743 mmHg 67%
    04:00 +5°C° 0 mm 2 mps 743 mmHg 65%
    05:00 +5°C° 0 mm 2 mps 743 mmHg 64%
    06:00 +5°C° 0 mm 2 mps 743 mmHg 62%
    07:00 +7°C° 0 mm 3 mps 742 mmHg 58%
    08:00 +9°C° 0 mm 3 mps 742 mmHg 53%
    09:00 +12°C° 0 mm 3 mps 742 mmHg 49%
    10:00 +13°C° 0 mm 3 mps 741 mmHg 46%
    11:00 +14°C° 0 mm 3 mps 741 mmHg 44%
    12:00 +17°C° 0 mm 3 mps 741 mmHg 42%
    13:00 +17°C° 0 mm 3 mps 741 mmHg 41%
    14:00 +17°C° 0 mm 2 mps 740 mmHg 41%
    15:00 +18°C° 0 mm 2 mps 740 mmHg 41%
    16:00 +16°C° 0 mm 2 mps 740 mmHg 49%
    17:00 +14°C° 0 mm 1 mps 741 mmHg 57%
    18:00 +13°C° 0 mm 1 mps 741 mmHg 65%
    19:00 +12°C° 0 mm 1 mps 741 mmHg 69%
    20:00 +11°C° 0 mm 1 mps 742 mmHg 72%
    21:00 +9°C° 0 mm 1 mps 742 mmHg 75%
    22:00 +9°C° 0 mm 1 mps 742 mmHg 74%
    23:00 +8°C° 0 mm 2 mps 742 mmHg 72%

    Tomorrow, 27 March, Wednesday

    Time Temperature Precipitation Wind Pressure Humidity
    00:00 +8°C° 0 mm 2 mps 742 mmHg 71%
    01:00 +7°C° 0 mm 2 mps 742 mmHg 69%
    02:00 +7°C° 0 mm 2 mps 742 mmHg 68%
    03:00 +7°C° 0 mm 2 mps 742 mmHg 66%
    04:00 +7°C° 0 mm 2 mps 742 mmHg 65%
    05:00 +6°C° 0 mm 2 mps 742 mmHg 65%
    06:00 +6°C° 0 mm 2 mps 743 mmHg 64%
    07:00 +8°C° 0 mm 2 mps 742 mmHg 59%
    08:00 +12°C° 0 mm 2 mps 742 mmHg 54%
    09:00 +14°C° 0 mm 1 mps 742 mmHg 49%
    10:00 +15°C° 0 mm 2 mps 742 mmHg 47%
    11:00 +16°C° 0 mm 2 mps 742 mmHg 45%
    12:00 +17°C° 0 mm 2 mps 742 mmHg 43%
    13:00 +17°C° 0 mm 3 mps 742 mmHg 44%
    14:00 +17°C° 0 mm 3 mps 742 mmHg 45%
    15:00 +17°C° 0 mm 4 mps 742 mmHg 46%
    16:00 +15°C° 0 mm 4 mps 742 mmHg 53%
    17:00 +14°C° 0 mm 3 mps 742 mmHg 60%
    18:00 +12°C° 0 mm 3 mps 743 mmHg 67%
    19:00 +11°C° 0 mm 3 mps 744 mmHg 74%
    20:00 +10°C° 0 mm 2 mps 745 mmHg 81%
    21:00 +8°C° 0 mm 2 mps 746 mmHg 88%
    22:00 +8°C° 0.1 mm 2 mps 746 mmHg 89%
    23:00 +8°C° 0.1 mm 2 mps 746 mmHg 89%

    Day after tomorrow, 28 March, Thursday

    Time Temperature Precipitation Wind Pressure Humidity
    00:00 +7°C° 0.1 mm 2 mps 746 mmHg 90%
    01:00 +7°C° 0.1 mm 2 mps 747 mmHg 92%
    02:00 +7°C° 0.1 mm 2 mps 747 mmHg 93%
    03:00 +6°C° 0.1 mm 2 mps 747 mmHg 95%
    04:00 +6°C° 0.1 mm 2 mps 747 mmHg 95%
    05:00 +6°C° 0.1 mm 2 mps 747 mmHg 95%
    06:00 +5°C° 0.1 mm 2 mps 747 mmHg 95%
    07:00 +6°C° 0.1 mm 2 mps 747 mmHg 91%
    08:00 +7°C° 0.1 mm 2 mps 747 mmHg 87%
    09:00 +7°C° 0.1 mm 2 mps 747 mmHg 84%
    10:00 +8°C° 0.1 mm 2 mps 747 mmHg 81%
    11:00 +9°C° 0.1 mm 3 mps 747 mmHg 77%
    12:00 +9°C° 0.1 mm 3 mps 747 mmHg 74%
    13:00 +9°C° 0.2 mm 3 mps 746 mmHg 76%
    14:00 +9°C° 0.2 mm 3 mps 746 mmHg 77%
    15:00 +8°C° 0.2 mm 4 mps 746 mmHg 78%
    16:00 +8°C° 0.3 mm 4 mps 746 mmHg 81%
    17:00 +8°C° 0.3 mm 3 mps 747 mmHg 85%
    18:00 +7°C° 0.3 mm 3 mps 747 mmHg 88%
    19:00 +7°C° 0.3 mm 3 mps 747 mmHg 90%
    20:00 +6°C° 0.3 mm 2 mps 748 mmHg 92%
    21:00 +6°C° 0.3 mm 2 mps 748 mmHg 95%
    22:00 +6°C° 0.3 mm 2 mps 748 mmHg 95%
    23:00 +6°C° 0.3 mm 1 mps 748 mmHg 95%

    29 March, Friday

    Time Temperature Precipitation Wind Pressure Humidity
    00:00 +6°C° 0.3 mm 1 mps 748 mmHg 95%
    01:00 +6°C° 0.3 mm 1 mps 748 mmHg 95%
    02:00 +6°C° 0.3 mm 1 mps 748 mmHg 95%
    03:00 +6°C° 0.3 mm 1 mps 748 mmHg 95%
    04:00 +6°C° 0.3 mm 1 mps 748 mmHg 95%
    05:00 +6°C° 0.3 mm 1 mps 748 mmHg 95%
    06:00 +5°C° 0.3 mm 1 mps 748 mmHg 95%
    07:00 +6°C° 0.3 mm 1 mps 748 mmHg 92%
    08:00 +6°C° 0.3 mm 1 mps 748 mmHg 88%
    09:00 +7°C° 0.3 mm 1 mps 748 mmHg 85%
    10:00 +6°C° 0.2 mm 2 mps 748 mmHg 82%
    11:00 +7°C° 0.2 mm 2 mps 747 mmHg 79%
    12:00 +8°C° 0.2 mm 2 mps 747 mmHg 76%
    13:00 +8°C° 0.2 mm 3 mps 747 mmHg 76%
    14:00 +8°C° 0.2 mm 3 mps 747 mmHg 75%
    15:00 +8°C° 0.2 mm 3 mps 747 mmHg 75%
    16:00 +8°C° 0.1 mm 3 mps 747 mmHg 78%
    17:00 +7°C° 0.1 mm 2 mps 747 mmHg 80%
    18:00 +6°C° 0.1 mm 2 mps 748 mmHg 83%
    19:00 +7°C° 0 mm 1 mps 748 mmHg 85%
    20:00 +6°C° 0 mm 1 mps 749 mmHg 88%
    21:00 +4°C° 0 mm 0 mps 749 mmHg 91%
    22:00 +4°C° 0 mm 0 mps 749 mmHg 91%
    23:00 +5°C° 0 mm 1 mps 749 mmHg 91%

    30 March, Saturday

    Time Temperature Precipitation Wind Pressure Humidity
    00:00 +5°C° 0 mm 1 mps 748 mmHg 91%
    01:00 +5°C° 0 mm 1 mps 748 mmHg 88%
    02:00 +5°C° 0 mm 1 mps 748 mmHg 86%
    03:00 +5°C° 0 mm 1 mps 747 mmHg 83%
    04:00 +5°C° 0 mm 1 mps 747 mmHg 81%
    05:00 +4°C° 0 mm 2 mps 747 mmHg 79%
    06:00 +4°C° 0 mm 2 mps 747 mmHg 77%
    07:00 +6°C° 0 mm 2 mps 747 mmHg 72%
    08:00 +8°C° 0 mm 2 mps 746 mmHg 66%
    09:00 +10°C° 0 mm 2 mps 746 mmHg 61%
    10:00 +12°C° 0 mm 2 mps 746 mmHg 58%
    11:00 +14°C° 0 mm 2 mps 745 mmHg 55%
    12:00 +16°C° 0 mm 2 mps 745 mmHg 53%
    13:00 +16°C° 0 mm 3 mps 744 mmHg 54%
    14:00 +16°C° 0 mm 3 mps 744 mmHg 55%
    15:00 +15°C° 0 mm 4 mps 743 mmHg 56%
    16:00 +14°C° 0 mm 4 mps 743 mmHg 59%
    17:00 +13°C° 0 mm 4 mps 743 mmHg 63%
    18:00 +11°C° 0 mm 4 mps 743 mmHg 66%
    19:00 +11°C° 0 mm 4 mps 744 mmHg 65%
    20:00 +11°C° 0 mm 4 mps 744 mmHg 64%
    21:00 +9°C° 0 mm 5 mps 744 mmHg 63%
    22:00 +9°C° 0 mm 5 mps 744 mmHg 61%
    23:00 +10°C° 0 mm 6 mps 744 mmHg 60%

    31 March, Sunday

    Time Temperature Precipitation Wind Pressure Humidity
    00:00 +10°C° 0 mm 6 mps 743 mmHg 59%
    01:00 +10°C° 0 mm 6 mps 743 mmHg 59%
    02:00 +10°C° 0 mm 6 mps 743 mmHg 60%
    03:00 +10°C° 0 mm 6 mps 742 mmHg 61%
    04:00 +10°C° 0 mm 6 mps 742 mmHg 60%
    05:00 +10°C° 0 mm 6 mps 742 mmHg 60%
    06:00 +10°C° 0 mm 6 mps 742 mmHg 60%
    07:00 +11°C° 0 mm 6 mps 742 mmHg 58%
    08:00 +12°C° 0 mm 7 mps 741 mmHg 57%
    09:00 +13°C° 0 mm 8 mps 741 mmHg 55%
    10:00 +15°C° 0 mm 8 mps 741 mmHg 53%
    11:00 +16°C° 0 mm 8 mps 740 mmHg 51%
    12:00 +17°C° 0 mm 8 mps 740 mmHg 48%
    13:00 +17°C° 0 mm 7 mps 739 mmHg 48%
    14:00 +18°C° 0 mm 7 mps 739 mmHg 47%
    15:00 +18°C° 0 mm 7 mps 738 mmHg 46%
    16:00 +17°C° 0 mm 6 mps 738 mmHg 50%
    17:00 +15°C° 0 mm 5 mps 738 mmHg 54%
    18:00 +14°C° 0 mm 4 mps 738 mmHg 57%
    19:00 +13°C° 0 mm 4 mps 739 mmHg 58%
    20:00 +12°C° 0 mm 4 mps 739 mmHg 59%
    21:00 +12°C° 0 mm 4 mps 739 mmHg 60%
    22:00 +11°C° 0 mm 4 mps 739 mmHg 60%
    23:00 +11°C° 0 mm 3 mps 738 mmHg 61%
    Show more